Regional Weather Roundup
Issued by NWS

Home | Current Version | Previous Version | Graphics & Text | Print | Product List | Glossary On
Versions: 1 2 3 4 5 6 7 8 9 10 11 12 13 14 15 16 17 18 19 20 21 22 23 24 25 26 27 28 29 30 31 32 33 34 35 36 37 38 39 40 41 42 43 44 45 46 47 48 49 50
000
ASUS43 KDMX 201901
RWRIA

WEATHER ROUNDUP FOR IOWA
NATIONAL WEATHER SERVICE DES MOINES IA
200 PM CDT WED SEP 20 2017

NOTE: "FAIR" INDICATES FEW OR NO CLOUDS BELOW 12,000 FEET WITH NO
SIGNIFICANT WEATHER AND/OR OBSTRUCTIONS TO VISIBILITY.

* - THESE STATIONS ARE NOT NWS STATIONS...THUS NOT UNDER NWS
QUALITY CONTROL.  THEY ALSO DO NOT REPORT WEATHER SUCH
AS PRECIPITATION OR FOG.

IAZ001>003-012>014-020>022-031>034-043>046-202000-
   NORTHWEST IOWA

CITY           SKY/WX    TMP DP  RH WIND       PRES   REMARKS
CARROLL *      SUNNY     79  55  44 NW10      29.82S
CHEROKEE *     SUNNY     72  51  47 NW9       29.85S
DENISON *      SUNNY     75  55  50 NW9       29.86R
LE MARS *      SUNNY     72  50  46 NW8       29.87R
ORANGE CITY *  SUNNY     72  54  53 NW12      29.87S
SHELDON *      SUNNY     72  52  49 NW12      29.85F
SIOUX CITY     SUNNY     72  53  51 N9        29.86S
SPENCER        SUNNY     74  47  38 NW13      29.85S
STORM LAKE *   SUNNY     73  48  40 N13       29.85S
$$

IAZ055>058-069>071-079>083-090>094-202000-
   SOUTHWEST IOWA

CITY           SKY/WX    TMP DP  RH WIND       PRES   REMARKS
ATLANTIC *     SUNNY     79  61  53 NW9       29.81S HX  80
AUDUBON *      SUNNY     79  63  57 N10       29.83S HX  80
CLARINDA *     PTSUNNY   84  70  61 NW5       29.81S HX  88
COUNCIL BLFS * SUNNY     77  57  50 NW14      29.83S
CRESTON *      CLOUDY    84 -29   1 SW8       29.81S HX  80
HARLAN  *      SUNNY     79  57  47 N10       29.86S HX  80
LAMONI         PTSUNNY   85  71  63 S8        29.80S HX  90
RED OAK *      SUNNY     82  63  51 MISG      29.81S HX  83
SHENANDOAH *   SUNNY     82  64  54 VRB5      29.81S HX  84
$$

IAZ047>049-059>061-072>074-084-202000-
   CENTRAL IOWA

CITY           SKY/WX    TMP DP  RH WIND       PRES   REMARKS
AMES           MOSUNNY   84  71  65 W8        29.78R HX  89
ANKENY *       PTSUNNY   84  72  65 VRB7      29.78S HX  89
BOONE *        SUNNY     84  64  51 NW7       29.79S HX  86
CHARITON *     PTSUNNY   84  72  65 SW8G15    29.80S HX  89
DES MOINES     PTSUNNY   87  69  54 S10       29.77S HX  91
GRINNELL*      CLOUDY    83  70  64 SW6       29.81R HX  87
KNOXVILLE *    CLOUDY    84  70  61 SW10      29.78S HX  88
MARSHALLTOWN   CLOUDY    83  72  69 S9        29.78S HX  88
NEWTON *       CLOUDY    84  70  61 SW8       29.79S HX  88
PELLA *        PTSUNNY   85  68  57 SW8       29.80S HX  88
PERRY *          N/A     84  62  48 N8        29.80S HX  85
$$

IAZ004>006-015-016-023>025-035-036-202000-
   NORTH CENTRAL IOWA

CITY           SKY/WX    TMP DP  RH WIND       PRES   REMARKS
ALGONA *       SUNNY     75  54  46 NW8G16    29.83S
CLARION *      SUNNY     79  59  50 NW12      29.82R HX  80
ESTHERVILLE    SUNNY     71  52  50 NW8G17    29.84S
FORT DODGE *   SUNNY     77  58  51 VRB7      29.83R
MASON CITY     SUNNY     78  57  48 NW13      29.82R
FOREST CITY *    N/A     75  57  53 N12G18    29.83R
IOWA FALLS *     N/A     84  67  56 NW8       29.80R HX  86
$$

IAZ007>011-017>019-026>030-037>042-050>054-066-202000-
   NORTHEAST IOWA

CITY           SKY/WX    TMP DP  RH WIND       PRES   REMARKS
CEDAR RAPIDS   MOSUNNY   89  70  53 SW14G21   29.77F HX  94
CHARLES CITY * PTSUNNY   82  70  65 NW7       29.79S HX  86
CLINTON *      SUNNY     90  72  55 S14G22    29.81F HX  97
DECORAH *      MOSUNNY   82  70  65 SW8G16    29.78S HX  86
DUBUQUE        SUNNY     86  71  60 S18       29.79F HX  91
MONTICELLO *   MOSUNNY   90  70  51 S14G21    29.77F HX  95
OELWEIN *      CLOUDY    82  72  69 S10       29.80S HX  87
WATERLOO       PTSUNNY   83  69  62 S12       29.77S HX  86
$$

IAZ064-065-067-068-078-202000-
   EAST CENTRAL IOWA

CITY           SKY/WX    TMP DP  RH WIND       PRES   REMARKS
DAVENPORT      SUNNY     90  70  51 S13G22    29.82F HX  95
IOWA CITY      SUNNY     92  70  48 S14       29.78F HX  97
MUSCATINE *    SUNNY     93  68  43 SE17      29.77F HX  97
QUAD CITIES    SUNNY     92  70  48 S15G22    29.79F HX  97
$$

IAZ062-063-075>077-085>089-095>099-202000-
   SOUTHEAST IOWA

CITY           SKY/WX    TMP DP  RH WIND       PRES   REMARKS
BURLINGTON     SUNNY     90  72  55 S14G23    29.81F HX  97
FAIRFIELD *    SUNNY     91  68  46 S14G21    29.78F HX  95
FORT MADISON * SUNNY     91  72  52 SW12G17   29.82F HX  98
KEOKUK *       SUNNY     91  72  52 S14G22    29.80F HX  98
OSKALOOSA *    PTSUNNY   86  69  57 SW13      29.80R HX  90
OTTUMWA        PTSUNNY   87  70  56 SW14G20   29.79S HX  92
WASHINGTON *   SUNNY     91  72  52 S15G21    29.79F HX  98
$$

ABBREVIATIONS USED IN REMARKS
   TC - TEMPERATURES IN CELSIUS
  WCI - WIND CHILL INDEX
   HX - HEAT INDEX
  VSB - VISIBILITY
$$





USA.gov is the U.S. government's official web portal to all federal, state and local government web resources and services.